User: anonymous   Login
Location: Edemissen
(51.7689°N, 9.8634°E)
Time: 22:52:39
(UTC+00:00)
Language:

IRIDIUM 33 DEB - Orbit

View from above orbital plane
View from above orbital plane
View from above satellite
View from above satellite

Ground track
Ground track

The orbit data is extracted from the following two-line orbital elements,

1 34486U 97051GB  25322.22102177  .00028118  00000-0  26058-2 0  9996
2 34486  86.3967  23.3248 0011536 194.9758 227.4041 14.94297043886204
Epoch (UTC): 18 November 2025 05:18:16
Eccentricity: 0.0011536
inclination: 86.3967°
perigee height: 576 km
apogee height: 592 km
right ascension of ascending node: 23.3248°
argument of perigee: 194.9758°
revolutions per day: 14.94297043
mean anomaly at epoch: 227.4041°
orbit number at epoch: 88620

The dashed part of the orbit path shows where the satellite is in the earth's shadow,  

DLR